Time,TemperatureF,DewpointF,PressureIn,WindDirection,WindDirectionDegrees,WindSpeedMPH,WindSpeedGustMPH,Humidity,HourlyPrecipIn,Conditions,Clouds,dailyrainin,SoftwareType,DateUTC
2013-02-02 00:00:00,16.2,3.2,29.93,NW,315,0.0,0.0,56,0.00,,,0.00,WUHU216HW,2013-02-02 05:00:00,
2013-02-02 00:01:00,16.2,3.2,29.93,NW,315,0.0,0.0,56,0.00,,,0.00,WUHU216HW,2013-02-02 05:01:00,
2013-02-02 00:06:00,16.2,3.2,29.93,NW,315,0.0,0.0,56,0.00,,,0.00,WUHU216HW,2013-02-02 05:06:00,
2013-02-02 00:30:00,15.5,3.3,29.92,NNE,23,0.0,0.0,58,0.00,,,0.00,WUHU216HW,2013-02-02 05:30:00,
2013-02-02 00:35:00,15.5,3.3,29.92,NNE,23,0.0,0.0,58,0.00,,,0.00,WUHU216HW,2013-02-02 05:35:00,
2013-02-02 01:00:00,14.8,3.0,29.92,West,270,0.0,0.0,59,0.00,,,0.00,WUHU216HW,2013-02-02 06:00:00,
2013-02-02 01:05:00,14.8,3.0,29.92,West,270,0.0,0.0,59,0.00,,,0.00,WUHU216HW,2013-02-02 06:05:00,
2013-02-02 01:30:00,14.4,3.1,29.91,West,270,0.0,0.0,60,0.00,,,0.00,WUHU216HW,2013-02-02 06:30:00,
2013-02-02 01:35:00,14.4,3.1,29.91,West,270,0.0,0.0,60,0.00,,,0.00,WUHU216HW,2013-02-02 06:35:00,
2013-02-02 02:00:00,13.3,2.7,29.90,SW,225,0.0,0.0,62,0.00,,,0.00,WUHU216HW,2013-02-02 07:00:00,
2013-02-02 02:05:00,13.3,2.7,29.90,SW,225,0.0,0.0,62,0.00,,,0.00,WUHU216HW,2013-02-02 07:05:00,
2013-02-02 02:30:00,13.0,3.3,29.90,SSE,158,0.4,0.4,65,0.00,,,0.00,WUHU216HW,2013-02-02 07:30:00,
2013-02-02 02:35:00,13.0,3.3,29.90,SSE,158,0.4,0.4,65,0.00,,,0.00,WUHU216HW,2013-02-02 07:35:00,
2013-02-02 03:00:00,12.6,3.0,29.90,SW,225,0.0,0.0,65,0.00,,,0.00,WUHU216HW,2013-02-02 08:00:00,
2013-02-02 03:05:00,12.6,3.0,29.90,SW,225,0.0,0.0,65,0.00,,,0.00,WUHU216HW,2013-02-02 08:05:00,
2013-02-02 03:30:00,12.1,2.8,29.89,West,270,0.0,0.0,66,0.00,,,0.00,WUHU216HW,2013-02-02 08:30:00,
2013-02-02 03:35:00,12.1,2.8,29.89,West,270,0.0,0.0,66,0.00,,,0.00,WUHU216HW,2013-02-02 08:35:00,
2013-02-02 04:00:00,11.9,2.6,29.89,NNE,23,0.4,0.4,66,0.00,,,0.00,WUHU216HW,2013-02-02 09:00:00,
2013-02-02 04:04:00,11.9,2.6,29.89,NNE,23,0.4,0.4,66,0.00,,,0.00,WUHU216HW,2013-02-02 09:04:00,
2013-02-02 04:30:00,11.2,2.6,29.88,SSW,203,0.0,0.0,68,0.00,,,0.00,WUHU216HW,2013-02-02 09:30:00,
2013-02-02 04:35:00,11.2,2.6,29.88,SSW,203,0.0,0.0,68,0.00,,,0.00,WUHU216HW,2013-02-02 09:35:00,
2013-02-02 05:00:00,11.2,2.9,29.88,WNW,293,0.4,0.4,69,0.00,,,0.00,WUHU216HW,2013-02-02 10:00:00,
2013-02-02 05:05:00,11.2,2.9,29.88,WNW,293,0.4,0.4,69,0.00,,,0.00,WUHU216HW,2013-02-02 10:05:00,
2013-02-02 05:30:00,11.2,2.9,29.88,SSE,158,0.0,0.0,69,0.00,,,0.00,WUHU216HW,2013-02-02 10:30:00,
2013-02-02 05:35:00,11.2,2.9,29.88,SSE,158,0.0,0.0,69,0.00,,,0.00,WUHU216HW,2013-02-02 10:35:00,
2013-02-02 06:00:00,11.2,3.5,29.87,West,270,0.0,0.0,71,0.00,,,0.00,WUHU216HW,2013-02-02 11:00:00,
2013-02-02 06:05:00,11.2,3.5,29.87,West,270,0.0,0.0,71,0.00,,,0.00,WUHU216HW,2013-02-02 11:05:00,
2013-02-02 06:30:00,11.3,3.7,29.87,West,270,0.0,0.0,71,0.00,,,0.00,WUHU216HW,2013-02-02 11:30:00,
2013-02-02 06:35:00,11.3,3.7,29.87,West,270,0.0,0.0,71,0.00,,,0.00,WUHU216HW,2013-02-02 11:35:00,
2013-02-02 07:00:00,11.2,3.8,29.87,West,270,0.0,0.0,72,0.00,,,0.00,WUHU216HW,2013-02-02 12:00:00,
2013-02-02 07:05:00,11.2,3.8,29.87,West,270,0.0,0.0,72,0.00,,,0.00,WUHU216HW,2013-02-02 12:05:00,
2013-02-02 07:30:00,11.3,4.0,29.87,NNE,23,0.2,0.2,72,0.00,,,0.00,WUHU216HW,2013-02-02 12:30:00,
2013-02-02 07:35:00,11.3,4.0,29.87,NNE,23,0.2,0.2,72,0.00,,,0.00,WUHU216HW,2013-02-02 12:35:00,
2013-02-02 08:00:00,11.9,5.1,29.86,NE,45,0.0,0.0,74,0.00,,,0.00,WUHU216HW,2013-02-02 13:00:00,
2013-02-02 08:04:00,11.9,5.1,29.86,NE,45,0.0,0.0,74,0.00,,,0.00,WUHU216HW,2013-02-02 13:04:00,
2013-02-02 08:30:00,13.7,6.9,29.86,ENE,68,0.0,0.0,74,0.00,,,0.00,WUHU216HW,2013-02-02 13:30:00,
2013-02-02 08:35:00,13.7,6.9,29.86,ENE,68,0.0,0.0,74,0.00,,,0.00,WUHU216HW,2013-02-02 13:35:00,
2013-02-02 08:40:00,13.7,6.9,29.86,ENE,68,0.0,0.0,74,0.00,,,0.00,WUHU216HW,2013-02-02 13:40:00,
2013-02-02 09:00:00,15.7,8.8,29.85,SSW,203,0.4,0.4,74,0.00,,,0.00,WUHU216HW,2013-02-02 14:00:00,
2013-02-02 09:05:00,15.7,8.8,29.85,SSW,203,0.4,0.4,74,0.00,,,0.00,WUHU216HW,2013-02-02 14:05:00,
2013-02-02 09:30:00,17.8,10.5,29.86,South,180,0.7,0.7,73,0.00,,,0.00,WUHU216HW,2013-02-02 14:30:00,
2013-02-02 09:35:00,17.8,10.5,29.86,South,180,0.7,0.7,73,0.00,,,0.00,WUHU216HW,2013-02-02 14:35:00,
2013-02-02 10:00:00,19.6,11.0,29.84,SSE,158,1.6,1.6,69,0.00,,,0.00,WUHU216HW,2013-02-02 15:00:00,
2013-02-02 10:05:00,19.6,11.0,29.84,SSE,158,1.6,1.6,69,0.00,,,0.00,WUHU216HW,2013-02-02 15:05:00,
2013-02-02 10:30:00,21.2,11.6,29.83,ESE,113,1.1,1.1,66,0.00,,,0.00,WUHU216HW,2013-02-02 15:30:00,
2013-02-02 10:35:00,21.2,11.6,29.83,ESE,113,1.1,1.1,66,0.00,,,0.00,WUHU216HW,2013-02-02 15:35:00,
2013-02-02 11:00:00,22.3,10.9,29.81,ESE,113,2.5,2.5,61,0.00,,,0.00,WUHU216HW,2013-02-02 16:00:00,
2013-02-02 11:05:00,22.3,10.9,29.81,ESE,113,2.5,2.5,61,0.00,,,0.00,WUHU216HW,2013-02-02 16:05:00,
2013-02-02 11:30:00,22.7,10.8,29.79,SSW,203,1.6,1.6,60,0.00,,,0.00,WUHU216HW,2013-02-02 16:30:00,
2013-02-02 11:35:00,22.7,10.8,29.79,SSW,203,1.6,1.6,60,0.00,,,0.00,WUHU216HW,2013-02-02 16:35:00,
2013-02-02 12:00:00,23.4,11.5,29.77,SSE,158,4.0,4.0,60,0.00,,,0.00,WUHU216HW,2013-02-02 17:00:00,
2013-02-02 12:05:00,23.4,11.5,29.77,SSE,158,4.0,4.0,60,0.00,,,0.00,WUHU216HW,2013-02-02 17:05:00,
2013-02-02 12:30:00,24.8,12.5,29.75,SW,225,2.2,2.2,59,0.00,,,0.00,WUHU216HW,2013-02-02 17:30:00,
2013-02-02 12:35:00,24.8,12.5,29.75,SW,225,2.2,2.2,59,0.00,,,0.00,WUHU216HW,2013-02-02 17:35:00,
2013-02-02 13:00:00,25.2,11.3,29.72,SE,135,4.7,4.7,55,0.00,,,0.00,WUHU216HW,2013-02-02 18:00:00,
2013-02-02 13:05:00,25.2,11.3,29.72,SE,135,4.7,4.7,55,0.00,,,0.00,WUHU216HW,2013-02-02 18:05:00,
2013-02-02 13:30:00,25.6,11.5,29.70,SW,225,1.6,1.6,55,0.00,,,0.00,WUHU216HW,2013-02-02 18:30:00,
2013-02-02 13:35:00,25.6,11.5,29.70,SW,225,1.6,1.6,55,0.00,,,0.00,WUHU216HW,2013-02-02 18:35:00,
2013-02-02 14:00:00,25.6,11.2,29.68,SSE,158,2.9,2.9,54,0.00,,,0.00,WUHU216HW,2013-02-02 19:00:00,
2013-02-02 14:05:00,25.6,11.2,29.68,SSE,158,2.9,2.9,54,0.00,,,0.00,WUHU216HW,2013-02-02 19:05:00,
2013-02-02 14:30:00,26.3,11.8,29.68,SE,135,1.8,1.8,54,0.00,,,0.00,WUHU216HW,2013-02-02 19:30:00,
2013-02-02 14:35:00,26.3,11.8,29.68,SE,135,1.8,1.8,54,0.00,,,0.00,WUHU216HW,2013-02-02 19:35:00,
2013-02-02 15:00:00,27.0,12.1,29.66,SE,135,4.9,4.9,53,0.00,,,0.00,WUHU216HW,2013-02-02 20:00:00,
2013-02-02 15:05:00,27.0,12.1,29.66,SE,135,4.9,4.9,53,0.00,,,0.00,WUHU216HW,2013-02-02 20:05:00,
2013-02-02 15:30:00,30.8,13.3,29.64,SSE,158,6.9,6.9,48,0.00,,,0.00,WUHU216HW,2013-02-02 20:30:00,
2013-02-02 15:35:00,30.8,13.3,29.64,SSE,158,6.9,6.9,48,0.00,,,0.00,WUHU216HW,2013-02-02 20:35:00,
2013-02-02 16:00:00,29.2,12.9,29.61,SSW,203,5.6,5.6,50,0.00,,,0.00,WUHU216HW,2013-02-02 21:00:00,
2013-02-02 16:04:00,29.2,12.9,29.61,SSW,203,5.6,5.6,50,0.00,,,0.00,WUHU216HW,2013-02-02 21:04:00,
2013-02-02 16:30:00,28.8,12.6,29.60,SW,225,4.5,4.5,50,0.00,,,0.00,WUHU216HW,2013-02-02 21:30:00,
2013-02-02 16:35:00,28.8,12.6,29.60,SW,225,4.5,4.5,50,0.00,,,0.00,WUHU216HW,2013-02-02 21:35:00,
2013-02-02 17:00:00,29.5,14.0,29.60,ESE,113,4.9,4.9,52,0.00,,,0.00,WUHU216HW,2013-02-02 22:00:00,
2013-02-02 17:05:00,29.5,14.0,29.60,ESE,113,4.9,4.9,52,0.00,,,0.00,WUHU216HW,2013-02-02 22:05:00,
2013-02-02 17:30:00,28.6,16.1,29.59,SSW,203,6.0,6.0,59,0.00,,,0.00,WUHU216HW,2013-02-02 22:30:00,
2013-02-02 17:35:00,28.6,16.1,29.59,SSW,203,6.0,6.0,59,0.00,,,0.00,WUHU216HW,2013-02-02 22:35:00,
2013-02-02 18:00:00,28.1,17.8,29.58,SSE,158,2.7,2.7,65,0.00,,,0.00,WUHU216HW,2013-02-02 23:00:00,
2013-02-02 18:04:00,28.1,17.8,29.58,SSE,158,2.7,2.7,65,0.00,,,0.00,WUHU216HW,2013-02-02 23:04:00,
2013-02-02 18:30:00,27.7,18.2,29.58,SSW,203,0.7,0.7,67,0.00,,,0.00,WUHU216HW,2013-02-02 23:30:00,
2013-02-02 18:35:00,27.7,18.2,29.58,SSW,203,0.7,0.7,67,0.00,,,0.00,WUHU216HW,2013-02-02 23:35:00,
2013-02-02 19:00:00,27.5,18.0,29.58,SW,225,1.1,1.1,67,0.00,,,0.00,WUHU216HW,2013-02-03 00:00:00,
2013-02-02 19:04:00,27.5,18.0,29.58,SW,225,1.1,1.1,67,0.00,,,0.00,WUHU216HW,2013-02-03 00:04:00,
2013-02-02 19:30:00,27.2,17.6,29.58,SE,135,0.2,0.2,67,0.00,,,0.00,WUHU216HW,2013-02-03 00:30:00,
2013-02-02 19:35:00,27.2,17.6,29.58,SE,135,0.2,0.2,67,0.00,,,0.00,WUHU216HW,2013-02-03 00:35:00,
2013-02-02 20:00:00,27.5,18.4,29.57,SSE,158,0.7,0.7,68,0.00,,,0.00,WUHU216HW,2013-02-03 01:00:00,
2013-02-02 20:04:00,27.5,18.4,29.57,SSE,158,0.7,0.7,68,0.00,,,0.00,WUHU216HW,2013-02-03 01:04:00,
2013-02-02 20:30:00,27.0,17.8,29.57,SSE,158,0.0,0.0,68,0.00,,,0.00,WUHU216HW,2013-02-03 01:30:00,
2013-02-02 20:35:00,27.0,17.8,29.57,SSE,158,0.0,0.0,68,0.00,,,0.00,WUHU216HW,2013-02-03 01:35:00,
2013-02-02 21:00:00,26.6,17.8,29.56,SSE,158,0.0,0.0,69,0.00,,,0.00,WUHU216HW,2013-02-03 02:00:00,
2013-02-02 21:05:00,26.6,17.8,29.56,SSE,158,0.0,0.0,69,0.00,,,0.00,WUHU216HW,2013-02-03 02:05:00,
2013-02-02 21:30:00,26.8,18.4,29.56,SSE,158,0.0,0.0,70,0.00,,,0.00,WUHU216HW,2013-02-03 02:30:00,
2013-02-02 21:35:00,26.8,18.4,29.56,SSE,158,0.0,0.0,70,0.00,,,0.00,WUHU216HW,2013-02-03 02:35:00,
2013-02-02 22:00:00,26.8,18.6,29.55,SE,135,0.0,0.0,71,0.00,,,0.00,WUHU216HW,2013-02-03 03:00:00,
2013-02-02 22:05:00,26.8,18.6,29.55,SE,135,0.0,0.0,71,0.00,,,0.00,WUHU216HW,2013-02-03 03:05:00,
2013-02-02 22:30:00,26.3,18.5,29.55,NNE,23,0.0,0.0,72,0.00,,,0.00,WUHU216HW,2013-02-03 03:30:00,
2013-02-02 22:35:00,26.3,18.5,29.55,NNE,23,0.0,0.0,72,0.00,,,0.00,WUHU216HW,2013-02-03 03:35:00,
2013-02-02 22:59:00,26.3,18.7,29.55,SSW,203,0.0,0.0,73,0.00,,,0.00,WUHU216HW,2013-02-03 03:59:00,
2013-02-02 23:04:00,26.3,18.7,29.55,SSW,203,0.0,0.0,73,0.00,,,0.00,WUHU216HW,2013-02-03 04:04:00,
2013-02-02 23:29:00,26.6,19.5,29.55,North,0,0.0,0.0,74,0.00,,,0.00,WUHU216HW,2013-02-03 04:29:00,
2013-02-02 23:34:00,26.6,19.5,29.55,North,0,0.0,0.0,74,0.00,,,0.00,WUHU216HW,2013-02-03 04:34:00,
2013-02-02 23:59:00,26.3,19.4,29.55,SSE,158,0.0,0.0,75,0.00,,,0.00,WUHU216HW,2013-02-03 04:59:00,